SCP
0 0 0 0 0 0 0 0 0 0 0 0 0 0 0 0 0 0 0 0 0 0 0 0 0 0 0 0 0 0 0 0 0 0 0 0 0 0 0 0 0 0 0
0 0 0 0 0 0 0 0 0 0 0 0 0 0 0 0 0 0 0 0 0 0 0 0 0 0 0 0 0 0 0 0 0 0 0 0 0 0 0 0 0 0 0
0 0 0 0 0 0 0 0 0 0 0 0 0 0 0 0 0 0 0 0 0 0 0 0 0 0 0 0 0 0 0 0 0 0 0 0 0 0 0 0 0 0 0
0 0 0 0 0 0 0 0 0 0 0 0 0 0 0 0 0 0 0 0 0 0 0 0 0 0 0 0 0 0 0 0 0 0 0 0 0 0 0 0 0 0 0
0 0 0 0 0 0 0 0 0 0 0 0 0 0 0 0 0 0 0 0 0 0 0 0 0 0 0 0 0 0 0 0 0 0 0 0 0 0 0 0 0 0 0
0 0 0 0 0 0 0 0 0 0 0 0 0 0 0 0 0 0 0 0 0 0 0 0 0 0 0 0 0 0 0 0 0 0 0 0 0 0 0 0 0 0 0
0 0 0 0 0 0 0 0 0 0 0 0 0 0 0 0 0 0 0 0 0 0 0 0 0 0 0 0 0 0 0 0 0 0 0 0 0 0 0 0 0 0 0
0 0 0 0 0 0 0 0 0 0 0 0 0 0 0 0 0 0 0 0 -0 -0 0 0 0 0 0 0 0 0 0 0 0 0 0 0 0 0 0 0 0 0 0
0 0 0 0 0 0 0 0 0 0 0 0 0 0 0 0 0 0 0 0 -0 -0 -0 0 0 0 0 0 0 0 0 0 0 0 0 0 0 0 0 0 0 0 0
0 0 0 0 0 0 0 0 0 0 0 0 0 0 0 0 0 0 0 0 0 0 -0 0 0 0 0 0 0 0 0 0 0 0 0 0 0 0 0 0 0 0 0
0 0 0 0 0 0 0 0 0 0 0 0 0 0 0 0 0 0 0 0 0 0 0 -0 0 0 0 0 0 0 0 0 0 0 0 0 0 0 0 0 0 0 0
0 0 0 0 0 0 0 0 0 0 0 0 0 0 0 0 0 0 0 0 0 0 0 0 -0 0 0 0 0 0 0 0 0 0 0 0 0 0 0 0 0 0 0
0 0 0 0 0 0 0 0 0 0 0 0 0 0 0 0 0 0 0 0 0 0 0 0 0 0 0 -0 -0 0 0 0 0 0 0 0 0 0 0 0 0 0 0
0 0 0 0 0 0 0 0 0 0 0 0 0 0 0 0 0 0 0 0 0 0 0 0 0 0 0 0 -0 -0 0 0 0 0 0 0 0 0 0 0 0 0 0
0 0 0 0 0 0 0 0 0 0 0 0 0 0 0 0 0 0 0 0 0 0 0 0 0 0 0 0 0 0 0 0 0 0 0 0 0 0 0 0 0 0 0
0 0 0 0 0 0 0 0 0 0 0 0 0 0 0 0 0 0 0 0 0 0 0 0 0 0 0 0 0 0 0 0 0 0 0 0 0 0 0 0 0 0 0
0 0 0 0 0 0 0 0 0 0 0 0 0 0 0 0 0 0 0 0 0 0 0 0 0 0 0 0 0 0 0 0 0 0 0 0 0 0 0 0 0 0 0
0 0 0 0 0 0 0 0 0 0 0 0 0 0 0 0 0 0 0 0 0 0 0 0 0 0 0 0 0 0 0 0 0 0 0 0 0 0 0 0 0 0 0
0 0 0 0 0 0 0 0 0 0 0 0 0 0 0 0 0 0 0 0 0 0 0 0 0 0 0 0 0 0 0 0 0 0 0 0 0 0 0 0 0 0 0
0 0 0 0 0 0 0 0 0 0 0 0 0 0 0 0 0 0 0 0 0 0 0 0 0 0 0 0 0 0 0 0 0 0 0 0 0 0 0 0 0 0 0
0 0 0 0 0 0 0 0 0 0 0 0 0 0 0 0 0 0 0 0 0 0 0 0 0 0 0 0 0 0 0 0 0 0 0 0 0 0 0 0 0 0 0
0 0 0 0 0 0 0 0 0 0 0 0 0 0 0 0 0 0 0 0 0 0 0 0 0 0 0 0 0 0 0 0 0 0 0 0 0 0 0 0 0 0 0
0 0 0 0 0 0 0 0 0 0 0 0 0 0 0 0 0 0 0 0 0 0 0 0 0 0 0 0 0 0 0 0 0 0 0 0 0 0 0 0 0 0 0
0 0 0 0 0 0 0 0 0 0 0 0 0 0 0 0 0 0 0 0 0 0 0 0 0 0 0 0 0 0 0 0 0 0 0 0 0 0 0 0 0 0 0
0 0 0 0 0 0 0 0 0 0 0 0 0 0 0 0 0 0 0 0 0 0 0 0 0 0 0 0 0 0 0 0 0 0 0 0 0 0 0 0 0 0 0
0 0 0 0 0 0 0 0 0 0 0 0 0 0 0 0 0 0 0 0 0 0 0 0 0 0 0 0 0 0 0 0 0 0 0 0 0 0 0 0 0 0 0
Wind_Speed
4 4 3 2 2 2 3 3 2 3 3 4 4 5 4 4 4 3 3 6 6 7 7 8 8 8 8 8 8 7 7 7 7 7 7 7 7 6 6 6 7 7 8
4 4 3 3 2 2 2 3 3 3 3 4 4 5 4 4 4 4 3 4 7 7 7 7 8 8 8 7 7 6 6 6 6 7 7 7 6 6 6 6 6 7 7
5 4 4 3 2 2 3 3 4 4 4 4 4 4 4 4 4 4 4 3 4 6 7 7 8 8 7 7 6 6 6 6 5 6 6 6 6 5 5 5 5 6 6
5 4 4 3 3 3 3 3 4 4 4 4 4 3 3 4 4 4 4 3 3 3 4 7 7 7 6 6 6 6 6 6 5 5 5 5 4 5 4 4 4 4 5
4 4 4 3 4 3 3 4 3 4 4 4 4 3 3 3 3 4 4 4 3 3 2 4 6 6 6 5 5 5 5 5 4 4 4 4 4 4 4 4 4 4 4
3 3 3 4 4 3 3 3 4 3 4 4 5 4 3 2 2 3 3 3 3 3 3 3 3 3 5 4 4 4 4 3 3 3 3 3 3 4 4 3 3 3 4
3 3 3 4 4 3 4 5 4 4 3 3 4 3 3 3 2 1 2 3 3 3 3 3 2 2 2 3 3 3 3 3 3 3 3 3 3 3 3 3 4 4 3
3 3 3 3 3 3 4 5 5 3 2 2 4 4 2 1 1 1 1 2 2 2 2 2 2 2 1 1 1 3 2 3 3 3 3 3 3 4 4 4 4 4 4
3 3 4 4 3 3 4 4 5 4 3 1 2 4 4 4 1 1 0 1 2 2 2 1 2 2 2 1 0 1 3 2 2 3 3 3 3 3 4 4 5 5 5
2 2 3 3 4 3 3 4 3 3 4 3 1 1 2 4 4 2 1 0 1 2 2 2 2 2 2 1 1 1 2 1 2 3 4 4 4 4 5 5 6 5 6
2 2 3 3 3 3 3 3 3 3 2 3 3 2 2 2 2 3 2 1 1 1 2 2 2 2 2 1 1 0 1 2 3 4 5 5 5 5 6 6 6 7 6
1 1 2 2 3 3 3 3 3 4 3 2 2 2 3 3 3 3 3 2 2 1 1 1 2 2 2 2 1 1 1 2 4 5 5 6 6 6 7 7 7 8 7
1 2 2 2 2 2 3 3 3 3 3 3 3 1 2 2 3 3 3 3 2 1 1 1 1 2 2 2 1 1 2 3 4 6 6 6 6 7 8 8 9 8 8
2 3 3 2 2 3 3 3 2 2 2 2 2 2 1 2 2 3 4 4 2 0 1 2 1 2 2 2 2 2 2 4 5 6 7 7 7 8 8 9 9 9 9
2 3 3 3 2 2 3 3 3 2 2 2 2 2 1 1 1 2 3 4 5 3 3 3 2 2 2 2 2 1 1 4 6 7 7 7 8 8 8 9 10 10 10
3 4 3 3 3 2 3 3 3 3 3 3 2 3 2 2 2 2 2 2 3 4 3 3 3 2 2 2 3 1 2 5 6 7 7 7 8 8 9 10 10 10 10
4 4 3 3 3 3 3 3 3 4 4 3 3 3 3 2 2 2 2 2 2 3 3 2 1 1 2 2 2 1 2 2 3 6 8 8 8 9 9 9 10 10 11
3 4 4 4 4 3 3 4 4 5 5 5 4 3 3 2 3 3 2 3 2 2 3 3 1 1 2 2 2 2 2 2 2 6 8 8 9 9 9 9 10 10 11
3 3 3 4 4 4 4 4 4 5 5 5 5 5 4 4 4 3 3 3 2 2 2 2 2 1 1 1 1 2 2 2 3 5 7 8 8 9 9 10 10 10 10
4 3 3 4 4 4 4 4 4 4 4 4 4 4 5 5 5 5 4 4 3 3 2 2 2 2 2 1 1 2 2 2 3 3 4 5 7 8 9 10 11 10 10
4 4 3 3 3 3 4 5 4 5 4 4 4 4 5 6 7 6 4 4 5 3 3 2 2 2 2 2 2 2 2 2 3 2 2 3 3 3 5 8 9 10 11
3 3 3 4 4 4 6 8 6 5 5 5 5 4 4 5 7 8 8 8 8 6 5 4 3 4 4 4 2 2 2 1 3 2 1 3 2 4 4 3 8 11 11
3 3 3 4 5 5 7 8 8 5 5 5 5 4 3 4 5 4 6 7 8 10 9 6 6 6 5 5 4 3 3 3 4 2 1 4 2 4 4 5 10 11 11
2 2 3 3 3 4 6 7 8 5 4 4 5 5 5 4 5 5 5 4 4 5 6 5 6 6 5 5 5 5 4 3 3 2 2 3 3 3 4 4 9 10 10
1 2 2 2 3 3 5 6 6 3 3 4 4 5 5 5 7 8 5 5 4 4 5 7 7 6 7 6 4 2 1 1 3 3 2 2 2 3 3 3 5 8 10
1 1 1 2 2 3 4 5 5 2 3 3 2 3 6 6 7 8 5 5 5 5 3 3 4 4 4 5 6 4 4 3 2 3 2 2 2 2 4 3 2 3 5
Wind_Direction
147 143 138 135 134 135 139 133 125 122 117 115 115 117 115 106 98 89 83 90 98 108 114 121 118 112 108 104 97 91 84 80 76 72 68 65 61 59 59 58 59 58 55
151 147 142 142 140 141 143 141 136 127 121 118 113 113 113 110 96 91 78 78 83 93 101 110 113 112 108 104 98 94 87 82 75 71 68 63 58 57 56 58 56 56 54
149 149 143 143 147 138 127 125 117 110 111 112 111 113 112 107 106 98 90 78 72 73 83 97 104 107 105 103 98 93 86 82 76 68 64 61 57 57 50 51 56 55 51
146 148 146 147 148 138 129 130 131 118 110 114 112 108 108 107 107 106 100 92 80 67 74 85 95 101 102 102 98 94 88 79 72 63 56 53 49 48 45 53 55 52 46
143 144 149 149 145 140 135 137 131 131 124 118 115 99 96 109 117 116 111 104 96 91 79 83 88 91 94 92 90 91 88 80 70 61 50 41 36 33 33 45 47 42 34
133 137 140 143 138 136 137 130 129 125 130 130 112 90 69 81 102 121 128 117 108 103 92 83 81 85 89 89 85 87 78 73 64 59 47 30 22 15 11 21 31 27 19
132 134 136 141 136 140 148 140 127 128 127 127 105 84 44 48 70 97 121 124 123 115 107 97 87 72 64 72 79 87 74 63 51 45 34 20 10 3 2 7 6 359 356
134 138 138 140 136 129 133 138 133 128 131 136 128 124 108 33 7 54 116 139 141 123 124 125 116 105 91 67 48 70 66 52 36 28 23 17 4 357 352 352 349 348 345
129 135 143 141 140 139 151 150 146 138 149 155 140 145 153 184 184 326 231 153 154 143 151 149 149 151 131 118 97 55 45 28 4 351 348 347 339 333 330 332 335 334 335
114 121 133 136 139 137 151 162 148 141 147 159 167 144 141 145 149 159 294 280 185 175 179 176 160 154 140 139 138 79 41 4 330 327 322 320 319 317 315 318 321 320 323
117 124 126 133 140 143 150 153 136 142 142 157 169 159 122 97 117 144 178 216 265 231 200 190 174 165 155 152 170 191 339 300 302 308 307 310 314 313 312 313 313 312 311
115 123 131 139 142 145 156 159 149 154 153 142 151 166 159 159 166 153 162 179 208 246 228 193 181 182 176 171 194 202 297 306 305 304 299 302 308 312 311 308 307 307 305
173 183 165 164 155 155 159 152 147 157 160 159 160 169 179 179 158 148 142 155 174 250 262 244 207 186 185 180 211 228 262 289 298 303 300 300 306 308 307 305 305 303 302
183 179 170 174 171 159 161 150 144 159 159 160 162 153 158 185 163 155 152 148 145 219 258 247 248 202 192 189 221 217 251 279 288 294 300 305 305 304 300 299 300 302 300
175 173 167 170 173 168 167 159 160 167 159 164 170 164 167 166 153 155 151 154 154 175 224 232 225 222 204 194 218 208 237 272 284 291 295 299 303 298 295 294 295 295 297
182 168 167 168 173 178 175 169 170 173 166 179 177 169 174 174 150 149 155 154 151 160 200 222 222 228 211 218 230 219 242 270 278 287 290 293 295 298 294 291 291 292 293
182 170 171 175 182 188 186 182 186 179 181 188 184 178 191 176 166 164 154 149 148 147 188 239 245 218 196 216 251 256 256 261 274 283 288 290 293 295 295 294 294 293 291
184 176 174 180 190 195 192 189 191 191 191 195 196 186 197 181 183 178 169 171 172 166 172 212 241 232 230 221 233 250 268 269 269 280 285 290 296 295 294 297 300 298 295
183 179 180 190 195 196 194 198 196 197 199 199 195 194 198 186 196 192 186 186 183 176 166 184 224 232 246 238 253 273 275 279 280 279 281 289 293 297 296 297 297 297 297
186 191 194 200 201 201 202 201 196 197 202 204 202 202 201 199 201 193 192 193 181 178 172 181 214 224 236 245 218 252 281 276 284 286 283 290 293 298 298 297 296 294 293
192 191 193 204 203 203 208 205 200 196 197 201 206 210 212 211 207 199 196 191 183 185 183 193 216 220 227 217 226 225 255 289 284 262 288 292 294 293 294 294 292 291 292
191 190 201 208 210 220 219 214 208 198 197 198 205 213 215 215 217 219 218 208 194 191 197 198 211 220 232 223 217 217 234 285 289 267 269 287 276 276 278 272 282 289 293
193 204 213 213 218 225 221 217 214 203 198 201 203 206 219 223 216 211 225 224 221 222 212 202 211 221 222 213 202 219 224 227 244 254 255 277 270 270 271 279 289 290 292
208 217 225 224 225 234 227 222 220 212 204 207 207 206 210 218 214 205 203 210 220 228 228 219 217 224 222 211 203 211 217 231 261 259 204 260 276 270 282 280 286 290 295
245 237 231 221 230 251 240 233 225 204 208 217 215 210 209 214 224 217 203 210 227 241 244 232 230 236 239 234 213 169 184 225 271 264 211 228 268 287 284 275 283 293 301
244 246 253 240 234 248 251 244 230 209 210 220 220 222 226 225 228 222 206 205 223 234 224 229 234 240 234 228 218 199 192 210 244 261 220 212 256 304 301 279 276 295 301